Lexington Weather

Lexington, Massachusetts, USA

34°F
4/16/2021 9:22am 
  • Lexington Conditions: Snow, Mist, Overcast
  • Temperature: 34.2°F / 1.2°CColder 3.9°F than last hour.
  • Dew Point: 32.9°FDecreased 4.0°Fsince last hour.
  • Relative Humidity: 95
  • Wind: Wind from N N Calm, 10-min avg: 1 mph, gust: 2 mph
  • Barometer: 29.48 inFalling 0.03  inHg/hr Falling Slowly
  • Visibility: ½ mile
  • Snow Today: 0.3 in
  •   

Regional Weather Roundup
for Boston / Norton, MA

        
000
ASUS41 KBOX 131004
RWRBOX

REGIONAL WEATHER ROUNDUP
NATIONAL WEATHER SERVICE BOSTON/NORTON MA
600 AM EDT TUE APR 13 2021

NOTE:  "FAIR" INDICATES FEW OR NO CLOUDS BELOW 12,000 FEET WITH NO 
SIGNIFICANT WEATHER AND/OR OBSTRUCTIONS TO VISIBILITY.

MAZALL-131100-
EASTERN MASSACHUSETTS
  
CITY           SKY/WX    TMP DP  RH WIND       PRES   REMARKS
BOSTON         CLOUDY    46  34  62 N10       29.98R                  
BEVERLY        NOT AVBL                                               
LAWRENCE       PTCLDY    41  35  79 N8        30.00R                  
BEDFORD        CLOUDY    43  34  70 N3        29.98R                  
BLUE HILL        N/A     41  34  76 N9        29.95R                  
NORWOOD        CLOUDY    45  34  65 N6        29.98R                  
MARSHFIELD     CLOUDY    46  39  76 N8        29.96R                  
PLYMOUTH       MOCLDY    44  37  76 N13G21    29.94R                  
TAUNTON        CLOUDY    43  35  73 NW5       29.96R                  
NEW BEDFORD    CLOUDY    44  36  73 N6        29.95R                  
$$

MAZALL-131100-
CAPE COD AND THE ISLANDS
  
CITY           SKY/WX    TMP DP  RH WIND       PRES   REMARKS
FALMOUTH       CLOUDY    43  39  87 N10       29.92S                  
HYANNIS        CLOUDY    46  41  82 N12       29.91R                  
CHATHAM        CLOUDY    45  38  76 N9G20     29.93R                  
PROVINCETOWN   CLOUDY    45  40  82 NE13      29.95                   
NANTUCKET      CLOUDY    45  41  86 N16G24    29.90R                  
MARTHAS VNYRD  CLOUDY    45  39  79 N12       29.92S                  
$$
 
MAZALL-131100-
CENTRAL AND WESTERN MASSACHUSETTS
  
CITY           SKY/WX    TMP DP  RH WIND       PRES   REMARKS
WORCESTER      CLOUDY    44  33  65 N9        29.97R                  
FITCHBURG      CLOUDY    46  36  68 NW6       29.99S                  
ORANGE         CLOUDY    38  35  89 NE3       30.02R                  
SPRINGFIELD    CLOUDY    41  35  78 N3        29.99R                  
WESTFIELD      CLOUDY    40  36  86 N5        30.00R                  
NORTH ADAMS    CLOUDY    37  34  89 CALM      30.03R                  
PITTSFIELD     CLOUDY    37  35  92 CALM      30.00R                  
$$
 
RIZALL-131100-
RHODE ISLAND
  
CITY           SKY/WX    TMP DP  RH WIND       PRES   REMARKS
PROVIDENCE     CLOUDY    45  35  68 N10       29.97R                  
NEWPORT        CLOUDY    43  36  76 N9        29.95R                  
BLOCK ISLAND   CLOUDY    42  37  82 N9        29.96R                  
SMITHFIELD     CLOUDY    42  35  76 N7        29.97R                  
WESTERLY       CLOUDY    41  35  79 N9        29.97R                  
$$
 
CTZALL-131100-
CONNECTICUT
  
CITY           SKY/WX    TMP DP  RH WIND       PRES   REMARKS
BRADLEY INTL   CLOUDY    43  34  70 N5        30.00R                  
HARTFORD       CLOUDY    44  34  67 N3        30.01R                  
BRIDGEPORT     CLOUDY    45  35  68 N10       29.99R                  
DANBURY        CLOUDY    38  35  89 CALM      30.01R                  
GROTON         CLOUDY    43  35  73 N10       29.97R                  
NEW HAVEN      CLOUDY    44  37  76 N9        29.99R                  
CHESTER        CLOUDY    43  36  75 N7        29.98R                  
MERIDEN        CLOUDY    43  33  68 N6        30.01R                  
WILLIMANTIC    CLOUDY    42  35  76 N3        29.99R                  
OXFORD         CLOUDY    40  36  86 N7        30.00R                  
$$

MEZ002-015-021-024-NHZ003-005-008-011-012-014-VTZ005-008-131100-
NORTHERN NEW ENGLAND
  
CITY           SKY/WX    TMP DP  RH WIND       PRES   REMARKS
PORTLAND ME    PTCLDY    44  36  73 N8        29.99R                  
BANGOR ME      CLOUDY    48  36  63 N15       29.99R                  
CONCORD NH     PTCLDY    34  31  88 CALM      30.01R                  
MANCHESTER NH  PTCLDY    42  34  73 N6        29.99R                  
NASHUA NH      PTCLDY    39  36  89 NW6       30.01R                  
PORTSMOUTH NH  PTCLDY    39  34  80 NW3       30.00R                  
JAFFREY NH     CLOUDY    38  33  82 CALM      29.99R                  
KEENE NH       CLOUDY    35  35 100 CALM      30.03R                  
BURLINGTON VT  PTCLDY    41  35  79 NE5       30.04R                  
MT. WASHINGTON NOT AVBL                                               
$$

NYZ052-076-131100-
EASTERN NEW YORK
  
CITY           SKY/WX    TMP DP  RH WIND       PRES   REMARKS
ALBANY         MOCLDY    35  35 100 CALM      30.04R                  
NEW YORK CITY  PTCLDY    45  37  73 N7        29.99R                  
$$
 
ANZALL-131100-
MARINE OBSERVATIONS
  
STATION/POSITION TIME  TEMP    WIND        PRES    VSBY  WAVE
                       AIR SEA DIR/SP/G                  HT/PER
                 (UTC) (F)     (DEG/KT/KT) (MB)    (MI)  (FT/S)
BOSTON BUOY      0940   44 44  350/ 10/ 14 1015.2R
BUZZARDS BAY     0900          360/ 15/ 17 1014.2S
NANTUCKET SOUND  0940      47                N/A
MASS BAY-STELLWA 0904   45      10/ 14/ 16 1013.3R  1 7/8  4/ 6
ISLE OF SHOALS   0900   46      10/ 18/ 20 1014.3R
S OF BLOCK IS    0926      44                N/A           5/ 7
$$

......................KEY.........................
  SKY/WX - SKY CONDITION/PRESENT WEATHER
  TMP    - TEMPERATURE IN FAHRENHEIT
  DWPT   - DEWPOINT IN FAHRENHEIT
  RH     - RELATIVE HUMIDITY IN PERCENT
  WIND   - DIRECTION AND SPEED IN MPH
  PRES   - MEAN SEA LEVEL PRESSURE IN INCHES OF HG
  WCI    - WIND CHILL INDEX
  VSB    - VISIBILITY IN MILES
  HX     - HEAT INDEX
  TC     - TEMPERATURE IN CELSIUS
  VRB    - VARIABLE WIND DIRECTION
  N/A    - NOT AVAILABLE
  
      

Other recent Regional Weather Roundups

Fri Apr 16, 9:04am

Fri Apr 16, 8:04am

Fri Apr 16, 7:04am

Fri Apr 16, 6:04am

Fri Apr 16, 5:04am

Fri Apr 16, 4:04am

Fri Apr 16, 3:04am

Fri Apr 16, 2:04am

Fri Apr 16, 1:04am

Fri Apr 16, 12:04am

Thu Apr 15, 11:05pm

Thu Apr 15, 10:04pm

Thu Apr 15, 9:04pm

Thu Apr 15, 8:04pm

Thu Apr 15, 7:05pm

Thu Apr 15, 6:04pm

Thu Apr 15, 5:05pm

Thu Apr 15, 4:04pm

Thu Apr 15, 3:05pm

Thu Apr 15, 2:04pm

Thu Apr 15, 1:05pm

Thu Apr 15, 12:04pm

Thu Apr 15, 11:04am

Thu Apr 15, 10:05am

Thu Apr 15, 9:04am

Thu Apr 15, 8:04am

Thu Apr 15, 7:04am

Thu Apr 15, 6:04am

Thu Apr 15, 5:04am

Thu Apr 15, 4:04am

Thu Apr 15, 3:04am

Thu Apr 15, 2:04am

Thu Apr 15, 1:04am

Thu Apr 15, 12:04am

Wed Apr 14, 11:04pm

Wed Apr 14, 10:04pm

Wed Apr 14, 9:04pm

Wed Apr 14, 8:04pm

Wed Apr 14, 7:04pm

Wed Apr 14, 6:04pm

Wed Apr 14, 5:05pm

Wed Apr 14, 4:04pm

Wed Apr 14, 3:05pm

Wed Apr 14, 2:04pm

Wed Apr 14, 1:05pm

Wed Apr 14, 12:04pm

Wed Apr 14, 11:04am

Wed Apr 14, 10:04am

Wed Apr 14, 9:04am

Wed Apr 14, 8:04am

Wed Apr 14, 7:04am

Wed Apr 14, 6:04am

Wed Apr 14, 5:04am

Wed Apr 14, 4:04am

Wed Apr 14, 3:04am

Wed Apr 14, 2:04am

Wed Apr 14, 1:04am

Wed Apr 14, 12:04am

Tue Apr 13, 11:04pm

Tue Apr 13, 10:05pm

Tue Apr 13, 9:05pm

Tue Apr 13, 8:05pm

Tue Apr 13, 7:04pm

Tue Apr 13, 6:04pm

Tue Apr 13, 5:05pm

Tue Apr 13, 4:04pm

Tue Apr 13, 3:04pm

Tue Apr 13, 2:05pm

Tue Apr 13, 1:04pm

Tue Apr 13, 12:05pm

Tue Apr 13, 11:05am

Tue Apr 13, 10:04am

Tue Apr 13, 9:04am

Tue Apr 13, 8:04am

Tue Apr 13, 7:04am

Tue Apr 13, 5:04am

Tue Apr 13, 4:04am

Tue Apr 13, 3:04am

Tue Apr 13, 2:04am

Tue Apr 13, 1:04am

Tue Apr 13, 12:05am

Mon Apr 12, 11:04pm

Mon Apr 12, 10:04pm

Mon Apr 12, 9:04pm

Mon Apr 12, 8:04pm

Mon Apr 12, 7:05pm

Mon Apr 12, 6:04pm

Mon Apr 12, 5:04pm

Mon Apr 12, 4:04pm

Mon Apr 12, 3:05pm

Mon Apr 12, 2:04pm

Mon Apr 12, 1:05pm

Mon Apr 12, 12:04pm

Mon Apr 12, 11:04am

Mon Apr 12, 10:04am

Mon Apr 12, 9:04am

Mon Apr 12, 8:04am

Mon Apr 12, 7:04am

Mon Apr 12, 6:04am

Mon Apr 12, 5:04am

Mon Apr 12, 4:04am

Mon Apr 12, 3:04am

Mon Apr 12, 2:04am

Mon Apr 12, 1:05am

Mon Apr 12, 12:04am

Sun Apr 11, 11:04pm

Sun Apr 11, 10:04pm

Sun Apr 11, 9:04pm

Sun Apr 11, 8:04pm

Sun Apr 11, 7:04pm

Sun Apr 11, 6:05pm

Sun Apr 11, 5:05pm

Sun Apr 11, 4:04pm

Sun Apr 11, 3:05pm

Sun Apr 11, 2:05pm

Sun Apr 11, 1:05pm

Sun Apr 11, 12:04pm

Sun Apr 11, 11:05am

Sun Apr 11, 10:05am

Sun Apr 11, 9:04am

Sun Apr 11, 8:04am

Sun Apr 11, 7:04am

Sun Apr 11, 6:04am

Sun Apr 11, 5:04am

Sun Apr 11, 4:04am

Sun Apr 11, 3:04am

Sun Apr 11, 2:04am

Sun Apr 11, 1:05am

Sun Apr 11, 12:04am

Sat Apr 10, 11:05pm

Sat Apr 10, 10:04pm

Sat Apr 10, 9:04pm

Sat Apr 10, 8:04pm

Sat Apr 10, 7:05pm

Sat Apr 10, 6:04pm

Sat Apr 10, 5:04pm

Sat Apr 10, 4:04pm

Sat Apr 10, 3:04pm

Sat Apr 10, 2:05pm

Sat Apr 10, 1:04pm

Sat Apr 10, 12:04pm

Sat Apr 10, 11:04am

Sat Apr 10, 10:04am

Sat Apr 10, 9:04am

Sat Apr 10, 8:04am

Sat Apr 10, 7:04am

Sat Apr 10, 6:04am

Sat Apr 10, 5:04am

Sat Apr 10, 4:04am

Sat Apr 10, 3:04am

Sat Apr 10, 2:04am

Sat Apr 10, 1:05am

Sat Apr 10, 12:04am

Fri Apr 9, 11:04pm

Fri Apr 9, 10:05pm

Fri Apr 9, 9:04pm

Fri Apr 9, 8:05pm

Fri Apr 9, 7:05pm

Fri Apr 9, 6:04pm

Fri Apr 9, 5:04pm

Fri Apr 9, 4:05pm

Fri Apr 9, 3:05pm

Fri Apr 9, 2:04pm

Fri Apr 9, 1:04pm

Fri Apr 9, 12:04pm

Fri Apr 9, 11:05am

Fri Apr 9, 10:04am

Fri Apr 9, 9:04am

Meta data:

ID: cebc3f4d-d321-4953-b532-a0f62a64ee4a
Link: https://api.weather.gov/products/cebc3f4d-d321-4953-b532-a0f62a64ee4a